Terug naar catalogus

MOLNIYA 3-24

ActiefCommunicatieHEO
NORAD 15738·PAYLOAD·🇷🇺 Russia

Gelanceerd May 29, 1985 vanaf Plesetsk Cosmodrome

Loading…

Volgende Passages (komende 24 uur)

TLE

VersSource: Space-Track

Epoch: Sep 12, 2026, 17:22 UTC

1 15738U 85040A   26255.72402974  .00000162  00000-0  20948-3 0  9991
2 15738  62.3586 134.4236 6958423 258.9347  22.0753  2.55675396343450

Volg MOLNIYA 3-24 in realtime met AllMySat

Download on the App Store